sat.trackr.live / text

‹ back to catalog

STARLINK-11189 [DTC]

NORAD 60188 · 2024-124F

PAYLOAD ACTIVE UNKNOWN

§ Identity

Operator
Country
US
Launch date
2024-07-03
Launch site
AFETR
Launch vehicle
Mass (kg)
RCS (m²)

Purposes: comms

External: N2YO · Heavens-Above · Gunter

§ Orbital elements

Epoch: 2026-05-24T23:52:41.348064Z

Period
91.74 min
Inclination
53.1580°
Eccentricity
0.0000870
Mean motion
15.69710558 rev/d
Perigee alt
359.1 km
Apogee alt
360.3 km
Semi-major
6,737.9 km
B*
1.4558e-5
RAAN
145.4672°
Arg perigee
88.9250°
Mean anomaly
271.1867°
Rev number
10,851

§ Raw data

STARLINK-11189 [DTC]1 60188U 24124F   26144.99492301  .00001176  00000+0  14558-4 0  99912 60188  53.1580 145.4672 0000870  88.9250 271.1867 15.69710558108517

JSON: /api/v1/satellites/60188 · /tle

For live sub-satellite position, see the globe view (requires WebGL).

§ Visibility from observer

Set your observer location to see the next 7 days of passes ≥ 10°. The values pass through the URL so the page stays shareable.

No JS? Fill the form by hand. The geolocation button needs JavaScript.